Location: Lower Kingswood
(51.2667°N, 0.2167°W)
Time: 04:27:05
(UTC+00:00)

Cosmos 1812 Rocket - Pass Details

Date: 26 September 2023
Orbit: 603 x 629 km, 82.5° (Epoch: 29 November)

Event Time Altitude Azimuth Distance (km) Brightness Sun altitude
Exits shadow 02:47:31 55° 52° (NE) 760 4.2 -27.8°
Drops below altitude 10° 02:51:17 10° 16° (NNE) 2,022 6.8 -27.4°
Sets 02:53:32 0° 13° (NNE) 2,933 7.7 -27.1°
